Weather Roundup
Issued by NWS

Home | Current Version | Previous Version | Graphics & Text | Print | Product List | Glossary Off
Versions: 1 2 3 4 5 6 7 8 9 10 11 12 13 14 15 16 17 18 19 20 21 22 23 24 25 26 27 28 29 30 31 32 33 34 35 36 37 38 39 40 41 42 43 44 45 46 47 48 49 50

042
NZUS93 KARX 051410
HRRWXR

CURRENT HOURLY OBSERVATIONS ACROSS
MUCH OF THE UPPER MISSISSIPPI VALLEY
NATIONAL WEATHER SERVICE LA CROSSE WI
800 AM CST FRI FEB 05 2016


...SOUTHEAST MINNESOTA...


CITY           SKY/WX    TMP DP  RH WIND       PRES   REMARKS
ROCHESTER      PTCLDY     5   2  87 SW5       30.32R WCI  -4
ROCHESTER/MAYO FAIR      10   8  92 CALM      30.34R
WINONA         CLOUDY     5   1  85 CALM      30.39R
AUSTIN         CLOUDY     1   0  92 CALM      30.34R
ALBERT LEA       N/A      7   3  85 CALM      30.33S
DODGE CENTER   PTCLDY     3   1  92 CALM      30.31S
PRESTON        CLOUDY     6   3  87 SW3       30.33S
OWATONNA       PTCLDY     9   5  85 CALM      30.33R
FARIBAULT        N/A      3   1  92 CALM      30.33S
$$

...ELSEWHERE IN MINNESOTA...


CITY           SKY/WX    TMP DP  RH WIND       PRES   REMARKS
MINNEAPOLIS    CLOUDY     7   5  91 SE5       30.34R WCI  -2
INTNL FALLS    CLOUDY     8   5  87 SE5       30.19F WCI   0
DULUTH         CLOUDY     2  -2  83 W3        30.24R
RED WING       PTCLDY     1  -2  85 CALM      30.35R
REDWOOD FALLS  CLOUDY    12   8  84 SE12      30.26F WCI  -2
MANKATO        CLOUDY     5   1  85 SE9       30.32R WCI  -9
WORTHINGTON    CLOUDY    16  10  79 SW15      30.25S WCI   1
FAIRMONT       CLOUDY     9   5  85 S9        30.30R WCI  -5
$$

...SOUTHWEST WISCONSIN...


CITY           SKY/WX    TMP DP  RH WIND       PRES   REMARKS
LA CROSSE      CLOUDY     2  -2  83 CALM      30.38R
PRAIRIE DU CHI PTCLDY    12   9  86 CALM      30.39R
BOSCOBEL       PTCLDY     9   6  88 CALM      30.38S FOG
LONE ROCK      PTCLDY     9   7  92 CALM      30.38R FOG
PLATTEVILLE    PTCLDY    19  19  96 CALM      30.35R
FORT MC COY    CLOUDY    -1  -4  87 CALM      30.37R
CAMP DOUGLAS   MOCLDY     1   1 100 W2        30.34R FOG
VIROQUA        FAIR      12  10  93 W6        30.33R WCI   2
WIS DELLS      PTCLDY    12   9  89 CALM      30.34R FOG
$$

...ELSEWHERE IN WISCONSIN...


CITY           SKY/WX    TMP DP  RH WIND       PRES   REMARKS
MILWAUKEE      MOCLDY    25  19  78 W7        30.34R WCI  17
MADISON        CLOUDY    21  16  81 NW5       30.35R WCI  15
GREEN BAY      CLOUDY    11   9  92 W8        30.33R FOG     WCI  -1
EAU CLAIRE     PTCLDY     2  -2  83 CALM      30.34R
BLACK RVR FLS  FAIR      -1  -5  82 CALM      30.35R
MEDFORD        PTCLDY   N/A N/A N/A CALM      30.27S FOG
WAUSAU         CLOUDY    12   9  87 CALM      30.28R
WIS RAPIDS     PTCLDY    11   6  81 SW3       30.34R HAZE
MARSHFIELD     MOCLDY    10   6  84 NW7       30.29R FOG     WCI  -1
RICE LAKE      CLOUDY    -3  -7  83 CALM      30.33S
$$

...NORTHEAST IOWA...


CITY           SKY/WX    TMP DP  RH WIND       PRES   REMARKS
WATERLOO       CLOUDY     2  -1  88 CALM      30.40R
DUBUQUE        CLOUDY    18  13  80 W5        30.35R HAZE    WCI  11
DECORAH        CLOUDY     7   5  92 CALM      30.35R
MASON CITY     CLOUDY     4   2  91 S3        30.36S
CHARLES CITY   CLOUDY     5   3  92 CALM      30.37S
OELWEIN        PTCLDY     7   3  85 W3        30.38R
$$

...ELSEWHERE IN IOWA...


CITY           SKY/WX    TMP DP  RH WIND       PRES   REMARKS
DES MOINES     CLOUDY    16  13  88 CALM      30.40R FOG
IOWA CITY      CLOUDY    17  13  84 NW3       30.41S
FORT DODGE     PTCLDY     1  -4  78 CALM      30.36S
MARSHALLTOWN   CLOUDY     8   6  92 CALM      30.38R
CEDAR RAPIDS   PTCLDY    14  12  92 W3        30.38R
$$

...NORTHERN ILLINOIS...


CITY           SKY/WX    TMP DP  RH WIND       PRES   REMARKS
CHICAGO-OHARE  CLOUDY    29  25  85 N10       30.32R WCI  20
CHICAGO-MIDWAY CLOUDY    30  24  78 W6        30.33R WCI  24
MOLINE         CLOUDY    26  17  68 N5        30.39R WCI  20
ROCKFORD       CLOUDY    26  19  74 N8        30.38R WCI  18
PEORIA         CLOUDY    27  19  72 VRB7      30.40R WCI  19
$$

NOTE: "FAIR" INDICATES FEW OR NO CLOUDS BELOW 12,000 FEET WITH NO
SIGNIFICANT WEATHER AND/OR OBSTRUCTIONS TO VISIBILITY. WIND
SPEEDS ARE IN MILES-PER-HOUR.




USA.gov is the U.S. government's official web portal to all federal, state and local government web resources and services.